Weather Roundup
Issued by NWS Springfield, MO

Home | Current Version | Previous Version | Text Only | Print | Product List | Glossary On
Versions: 1 2 3 4 5 6 7 8 9 10 11 12 13 14 15 16 17 18 19 20 21 22 23 24 25 26 27 28 29 30 31 32 33 34 35 36 37 38 39 40 41 42 43 44 45 46 47 48 49 50
000
NZUS99 KSGF 171807
HRRSGF

HOURLY WEATHER
NATIONAL WEATHER SERVICE SPRINGFIELD MO
100 PM CDT TUE OCT 17 2017

......SGF CWA......

CITY           SKY/WX    TMP DP  RH WIND       PRES   REMARKS
SPRINGFIELD    SUNNY     67  41  38 S14       30.27F
6HR MIN TEMP:  44; 6HR MAX TEMP:  67;

JOPLIN         SUNNY     68  45  43 S15G22    30.26F
6HR MIN TEMP:  47; 6HR MAX TEMP:  68;

WEST PLAINS    SUNNY     64  36  35 SW8       30.32F
6HR MIN TEMP:  41; 6HR MAX TEMP:  64;

ROLLA          SUNNY     65  40  39 SW10      30.29F
6HR MIN TEMP:  47; 6HR MAX TEMP:  65;

OSAGE BEACH    SUNNY     68  43  40 S14       30.27F
BRANSON        PTSUNNY   66  37  34 SE6       30.32F

......SURROUNDING SGF CWA......

CITY           SKY/WX    TMP DP  RH WIND       PRES   REMARKS
CHANUTE        LGT RAIN  68  45  43 S17       30.22F
PARSONS        SUNNY     67  45  45 S12       30.24F
COFFEYVILLE    SUNNY     67  46  47 S17G24    30.24F
EMPORIA        SUNNY     71  43  36 S22G29    30.15F
GROVE OK       SUNNY     70  45  40 SW12      30.28F
ROGERS AR      SUNNY     66  43  43 S13       30.30F
SILOAM SPRINGS SUNNY     66  42  41 S14       30.29F
HARRISON AR    SUNNY     64  38  38 S8        30.30F
NEAR YELLVILLE SUNNY     66  40  38 S7        30.31F

......KANSAS AND MISSOURI......

CITY           SKY/WX    TMP DP  RH WIND       PRES   REMARKS
KANSAS CTY INT SUNNY     69  45  41 S20       30.16F
DOWNTOWN KC    SUNNY     69  46  43 S15       30.16F
COLUMBIA       SUNNY     65  44  46 S13       30.25F
SEDALIA        SUNNY     69  46  43 SW16G24   30.24F
ST JOSEPH      SUNNY     72  44  36 S14G24    30.13F
ST LOUIS       PTSUNNY   68  39  34 SW10      30.29F
SPIRIT OF STL  PTSUNNY   66  41  40 SW8       30.27F
KIRKSVILLE     SUNNY     68  45  43 SW13      30.20F
WICHITA        SUNNY     68  45  43 S20       30.16F
TOPEKA         SUNNY     71  43  36 S15G22    30.13F
OLATHE         SUNNY     66  44  45 S15G23    30.18F

......TENNESSEE......

CITY           SKY/WX    TMP DP  RH WIND       PRES   REMARKS
MEMPHIS        MOSUNNY   68  43  40 N3        30.30F
NASHVILLE      MOSUNNY   66  39  37 E3        30.33F

......ARKANSAS.......

CITY           SKY/WX    TMP DP  RH WIND       PRES   REMARKS
FAYETTEVILLE   SUNNY     65  42  43 S10       30.29F
FT SMITH       SUNNY     68  39  34 SE5       30.29F
LITTLE ROCK    MOSUNNY   67  42  40 VRB7      30.31F

......OKLAHOMA.......

CITY           SKY/WX    TMP DP  RH WIND       PRES   REMARKS
TULSA          SUNNY     69  45  41 S14       30.24F
PONCA CITY     SUNNY     71  43  36 S9G17     30.20F
MCALESTER      SUNNY     70  44  39 SW10      30.29F
OKLAHOMA CITY  SUNNY     69  41  36 S20       30.23F

......IOWA............

CITY           SKY/WX    TMP DP  RH WIND       PRES   REMARKS
DES MOINES     MOSUNNY   70  42  36 SW14      30.10F
QUAD CITIES    SUNNY     69  43  38 SW14      30.16F

......ILLINOIS........

CITY           SKY/WX    TMP DP  RH WIND       PRES   REMARKS
QUINCY         SUNNY     67  41  38 SW15G24   30.22F
CHICAGO        MOSUNNY   67  42  40 SW15G26   30.16F




USA.gov is the U.S. government's official web portal to all federal, state and local government web resources and services.